| time (UTC) | temp F | wind direction | speed MPH | gust MPH | rain 1hr in | rain 24hr in | rain mn in | humidity % | barometer mb |
| 20260504140918 | 55 | 209 | 2.0 | 4.0 | 0.00 | 0.00 | 0.00 | 85 | 1014.8 |
| 20260504140426 | 55 | 227 | 1.0 | 4.0 | 0.00 | 0.00 | 0.00 | 85 | 1014.8 |
| 20260504130424 | 54 | 194 | 3.0 | 4.0 | 0.00 | 0.00 | 0.00 | 85 | 1014.3 |
| 20260504110423 | 55 | 244 | 2.0 | 6.0 | 0.00 | 0.00 | 0.00 | 85 | 1014.2 |
| 20260504100429 | 55 | 196 | 2.0 | 6.0 | 0.00 | 0.00 | 0.00 | 85 | 1014.2 |
| 20260504081921 | 55 | 191 | 3.0 | 9.0 | 0.00 | 0.00 | 0.00 | 84 | 1014.6 |
| 20260504081424 | 55 | 230 | 4.0 | 9.0 | 0.00 | 0.00 | 0.00 | 84 | 1014.4 |
| 20260504080930 | 55 | 249 | 3.0 | 10.0 | 0.00 | 0.00 | 0.00 | 84 | 1014.5 |
| 20260504080436 | 55 | 247 | 4.0 | 10.0 | 0.00 | 0.00 | 0.00 | 84 | 1014.6 |
| 20260504050438 | 56 | 277 | 6.0 | 14.0 | 0.00 | 0.00 | 0.00 | 83 | 1014.3 |
| 20260504045951 | 56 | 249 | 7.0 | 15.0 | 0.00 | 0.00 | 0.00 | 83 | 1014.1 |
| 20260504045436 | 56 | 210 | 7.0 | 15.0 | 0.00 | 0.00 | 0.00 | 83 | 1014.1 |
| 20260504044938 | 56 | 273 | 7.0 | 13.0 | 0.00 | 0.00 | 0.00 | 83 | 1014.0 |
| 20260504044425 | 56 | 236 | 8.0 | 13.0 | 0.00 | 0.00 | 0.00 | 83 | 1014.0 |
| 20260504043933 | 56 | 270 | 7.0 | 13.0 | 0.00 | 0.00 | 0.00 | 83 | 1014.0 |
| 20260504043421 | 56 | 240 | 5.0 | 15.0 | 0.00 | 0.00 | 0.00 | 83 | 1013.9 |
| 20260504042956 | 56 | 255 | 8.0 | 15.0 | 0.00 | 0.00 | 0.00 | 83 | 1013.9 |
| 20260504042451 | 56 | 237 | 6.0 | 14.0 | 0.00 | 0.00 | 0.00 | 83 | 1013.7 |
| 20260504041935 | 56 | 225 | 6.0 | 14.0 | 0.00 | 0.00 | 0.00 | 83 | 1013.8 |
| 20260504041419 | 56 | 263 | 7.0 | 15.0 | 0.00 | 0.00 | 0.00 | 83 | 1013.7 |
| 20260504040925 | 56 | 292 | 6.0 | 15.0 | 0.00 | 0.00 | 0.00 | 82 | 1013.6 |
| 20260504040434 | 56 | 306 | 7.0 | 15.0 | 0.00 | 0.00 | 0.00 | 82 | 1013.6 |
| 20260504035919 | 56 | 263 | 9.0 | 17.0 | 0.00 | 0.00 | 0.00 | 82 | 1013.5 |
| 20260504035424 | 56 | 233 | 8.0 | 15.0 | 0.00 | 0.00 | 0.00 | 81 | 1013.4 |
| 20260504034932 | 56 | 240 | 7.0 | 14.0 | 0.00 | 0.00 | 0.00 | 81 | 1013.3 |
| 20260504034419 | 56 | 247 | 6.0 | 12.0 | 0.00 | 0.00 | 0.00 | 81 | 1013.2 |
| 20260504033926 | 56 | 245 | 7.0 | 13.0 | 0.00 | 0.00 | 0.00 | 81 | 1013.1 |
| 20260504033431 | 56 | 261 | 6.0 | 15.0 | 0.00 | 0.00 | 0.00 | 81 | 1013.1 |
| 20260504032937 | 56 | 226 | 7.0 | 15.0 | 0.00 | 0.00 | 0.00 | 80 | 1013.1 |
| 20260504032425 | 56 | 216 | 7.0 | 16.0 | 0.00 | 0.00 | 0.00 | 80 | 1012.9 |
| 20260504031932 | 56 | 251 | 7.0 | 16.0 | 0.00 | 0.00 | 0.00 | 79 | 1012.9 |
| 20260504031418 | 56 | 233 | 8.0 | 16.0 | 0.00 | 0.00 | 0.00 | 79 | 1013.0 |
| 20260504030946 | 56 | 222 | 8.0 | 16.0 | 0.00 | 0.00 | 0.00 | 79 | 1013.0 |
| 20260504030431 | 56 | 237 | 9.0 | 15.0 | 0.00 | 0.00 | 0.00 | 79 | 1013.0 |
| 20260504025932 | 57 | 261 | 8.0 | 17.0 | 0.00 | 0.00 | 0.00 | 79 | 1013.0 |
| 20260504025441 | 57 | 260 | 6.0 | 17.0 | 0.00 | 0.00 | 0.00 | 78 | 1013.0 |
| 20260504024946 | 57 | 228 | 7.0 | 19.0 | 0.00 | 0.00 | 0.00 | 78 | 1013.0 |
| 20260504024431 | 57 | 228 | 10.0 | 19.0 | 0.00 | 0.00 | 0.00 | 77 | 1012.9 |
| 20260504023919 | 57 | 261 | 8.0 | 15.0 | 0.00 | 0.00 | 0.00 | 77 | 1012.8 |
| 20260504023426 | 57 | 224 | 8.0 | 16.0 | 0.00 | 0.00 | 0.00 | 77 | 1012.8 |
| 20260504022929 | 57 | 222 | 8.0 | 16.0 | 0.00 | 0.00 | 0.00 | 78 | 1012.9 |
| 20260504022435 | 57 | 263 | 9.0 | 17.0 | 0.00 | 0.00 | 0.00 | 77 | 1012.9 |
| 20260504021922 | 58 | 284 | 7.0 | 13.0 | 0.00 | 0.00 | 0.00 | 78 | 1012.8 |
| 20260504021431 | 58 | 310 | 6.0 | 15.0 | 0.00 | 0.00 | 0.00 | 78 | 1012.8 |
| 20260504020918 | 58 | 260 | 7.0 | 14.0 | 0.00 | 0.00 | 0.00 | 77 | 1012.7 |
| 20260504020455 | 58 | 234 | 7.0 | 16.0 | 0.00 | 0.00 | 0.00 | 77 | 1012.7 |
| 20260504015941 | 58 | 235 | 7.0 | 16.0 | 0.00 | 0.00 | 0.00 | 77 | 1012.8 |
| 20260504015424 | 58 | 251 | 7.0 | 14.0 | 0.00 | 0.00 | 0.00 | 77 | 1012.8 |
| 20260504014932 | 59 | 259 | 6.0 | 14.0 | 0.00 | 0.00 | 0.00 | 77 | 1012.8 |
| 20260504014438 | 59 | 275 | 7.0 | 16.0 | 0.00 | 0.00 | 0.00 | 77 | 1012.8 |
| 20260504013925 | 58 | 217 | 7.0 | 16.0 | 0.00 | 0.00 | 0.00 | 76 | 1012.9 |
| 20260504013432 | 58 | 238 | 8.0 | 18.0 | 0.00 | 0.00 | 0.00 | 76 | 1013.1 |
| 20260504012918 | 59 | 275 | 9.0 | 18.0 | 0.00 | 0.00 | 0.00 | 75 | 1013.1 |
| 20260504012445 | 60 | 184 | 9.0 | 18.0 | 0.00 | 0.00 | 0.00 | 75 | 1013.1 |
| 20260504011947 | 60 | 273 | 8.0 | 17.0 | 0.00 | 0.00 | 0.00 | 76 | 1012.9 |
| 20260504011431 | 59 | 205 | 7.0 | 17.0 | 0.00 | 0.00 | 0.00 | 76 | 1013.0 |
| 20260504010920 | 59 | 223 | 8.0 | 17.0 | 0.00 | 0.00 | 0.00 | 77 | 1013.0 |
| 20260504010429 | 58 | 261 | 7.0 | 19.0 | 0.00 | 0.00 | 0.00 | 77 | 1013.0 |
| 20260504005934 | 58 | 221 | 10.0 | 19.0 | 0.00 | 0.00 | 0.00 | 76 | 1013.1 |
| 20260504005422 | 59 | 283 | 10.0 | 19.0 | 0.00 | 0.00 | 0.00 | 77 | 1013.1 |
| 20260504004929 | 59 | 242 | 8.0 | 19.0 | 0.00 | 0.00 | 0.00 | 76 | 1013.1 |
| 20260504004432 | 59 | 244 | 7.0 | 18.0 | 0.00 | 0.00 | 0.00 | 76 | 1013.0 |
| 20260504003919 | 59 | 262 | 8.0 | 17.0 | 0.00 | 0.00 | 0.00 | 76 | 1013.1 |
| 20260504003419 | 59 | 252 | 8.0 | 19.0 | 0.00 | 0.00 | 0.00 | 76 | 1013.1 |
| 20260504002945 | 59 | 250 | 9.0 | 19.0 | 0.00 | 0.00 | 0.00 | 75 | 1013.1 |
| 20260504002430 | 60 | 196 | 5.0 | 13.0 | 0.00 | 0.00 | 0.00 | 75 | 1013.1 |
| 20260504001936 | 60 | 270 | 6.0 | 14.0 | 0.00 | 0.00 | 0.00 | 75 | 1013.0 |
| 20260504001452 | 60 | 208 | 8.0 | 15.0 | 0.00 | 0.00 | 0.00 | 74 | 1012.9 |
| 20260504000921 | 60 | 222 | 8.0 | 15.0 | 0.00 | 0.00 | 0.00 | 73 | 1012.9 |
| 20260504000431 | 60 | 236 | 5.0 | 15.0 | 0.00 | 0.00 | 0.00 | 74 | 1012.9 |
| 20260503235934 | 60 | 235 | 9.0 | 16.0 | 0.00 | 0.00 | 0.00 | 74 | 1012.9 |
| 20260503235419 | 59 | 260 | 7.0 | 17.0 | 0.00 | 0.00 | 0.00 | 73 | 1012.8 |
| 20260503234925 | 59 | 268 | 9.0 | 17.0 | 0.00 | 0.00 | 0.00 | 73 | 1012.8 |
| 20260503234433 | 60 | 256 | 8.0 | 16.0 | 0.00 | 0.00 | 0.00 | 73 | 1012.8 |
| 20260503233940 | 60 | 278 | 8.0 | 17.0 | 0.00 | 0.00 | 0.00 | 74 | 1012.8 |
| 20260503233445 | 60 | 258 | 9.0 | 18.0 | 0.00 | 0.00 | 0.00 | 74 | 1012.8 |
| 20260503232931 | 59 | 290 | 5.0 | 18.0 | 0.00 | 0.00 | 0.00 | 75 | 1012.9 |
| 20260503232418 | 59 | 256 | 9.0 | 16.0 | 0.00 | 0.00 | 0.00 | 75 | 1012.9 |
| 20260503231919 | 59 | 256 | 10.0 | 16.0 | 0.00 | 0.00 | 0.00 | 76 | 1013.0 |
| 20260503231454 | 59 | 226 | 6.0 | 16.0 | 0.00 | 0.00 | 0.00 | 76 | 1013.0 |
| 20260503230917 | 60 | 205 | 6.0 | 16.0 | 0.00 | 0.00 | 0.00 | 76 | 1013.0 |
| 20260503230423 | 60 | 287 | 9.0 | 16.0 | 0.00 | 0.00 | 0.00 | 75 | 1012.9 |
| 20260503225924 | 60 | 316 | 8.0 | 15.0 | 0.00 | 0.00 | 0.00 | 75 | 1013.0 |
| 20260503225432 | 60 | 242 | 7.0 | 14.0 | 0.00 | 0.00 | 0.00 | 74 | 1012.9 |
| 20260503224918 | 60 | 246 | 5.0 | 16.0 | 0.00 | 0.00 | 0.00 | 74 | 1012.9 |
| 20260503224420 | 60 | 227 | 7.0 | 17.0 | 0.00 | 0.00 | 0.00 | 74 | 1013.1 |
| 20260503223956 | 59 | 239 | 5.0 | 17.0 | 0.00 | 0.00 | 0.00 | 74 | 1013.1 |
| 20260503223422 | 60 | 282 | 8.0 | 15.0 | 0.00 | 0.00 | 0.00 | 74 | 1013.1 |
| 20260503222929 | 60 | 268 | 6.0 | 17.0 | 0.00 | 0.00 | 0.00 | 74 | 1013.1 |
| 20260503222416 | 60 | 244 | 8.0 | 17.0 | 0.00 | 0.00 | 0.00 | 73 | 1013.1 |
| 20260503221925 | 60 | 226 | 7.0 | 17.0 | 0.00 | 0.00 | 0.00 | 74 | 1013.1 |
| 20260503221429 | 60 | 208 | 7.0 | 17.0 | 0.00 | 0.00 | 0.00 | 73 | 1013.2 |
| 20260503220931 | 60 | 203 | 9.0 | 17.0 | 0.00 | 0.00 | 0.00 | 73 | 1013.1 |
| 20260503220418 | 60 | 201 | 9.0 | 15.0 | 0.00 | 0.00 | 0.00 | 72 | 1013.2 |
| 20260503215940 | 60 | 250 | 7.0 | 18.0 | 0.00 | 0.00 | 0.00 | 72 | 1013.1 |
| 20260503215428 | 60 | 273 | 10.0 | 18.0 | 0.00 | 0.00 | 0.00 | 72 | 1013.0 |
| 20260503214936 | 61 | 190 | 8.0 | 16.0 | 0.00 | 0.00 | 0.00 | 72 | 1013.0 |
| 20260503214425 | 61 | 213 | 6.0 | 19.0 | 0.00 | 0.00 | 0.00 | 72 | 1013.0 |
| 20260503213929 | 60 | 199 | 9.0 | 19.0 | 0.00 | 0.00 | 0.00 | 71 | 1013.0 |
| 20260503213432 | 61 | 219 | 10.0 | 19.0 | 0.00 | 0.00 | 0.00 | 71 | 1013.0 |
| 20260503212917 | 61 | 282 | 9.0 | 19.0 | 0.00 | 0.00 | 0.00 | 71 | 1013.0 |
| 20260503212441 | 61 | 221 | 7.0 | 16.0 | 0.00 | 0.00 | 0.00 | 70 | 1013.1 |
| 20260503211924 | 61 | 256 | 8.0 | 15.0 | 0.00 | 0.00 | 0.00 | 70 | 1013.1 |
| 20260503211430 | 61 | 244 | 10.0 | 19.0 | 0.00 | 0.00 | 0.00 | 70 | 1013.0 |
| 20260503210937 | 62 | 202 | 11.0 | 19.0 | 0.00 | 0.00 | 0.00 | 68 | 1013.0 |
| 20260503210438 | 62 | 236 | 5.0 | 15.0 | 0.00 | 0.00 | 0.00 | 70 | 1012.9 |
| 20260503205952 | 62 | 284 | 7.0 | 13.0 | 0.00 | 0.00 | 0.00 | 70 | 1012.9 |
| 20260503205446 | 62 | 244 | 7.0 | 15.0 | 0.00 | 0.00 | 0.00 | 71 | 1012.8 |
| 20260503204931 | 62 | 227 | 6.0 | 15.0 | 0.00 | 0.00 | 0.00 | 71 | 1012.9 |
| 20260503204418 | 62 | 263 | 7.0 | 13.0 | 0.00 | 0.00 | 0.00 | 71 | 1012.9 |
| 20260503203924 | 61 | 212 | 6.0 | 15.0 | 0.00 | 0.00 | 0.00 | 72 | 1012.8 |
| 20260503203433 | 61 | 259 | 8.0 | 15.0 | 0.00 | 0.00 | 0.00 | 72 | 1012.9 |
| 20260503202918 | 61 | 212 | 5.0 | 13.0 | 0.00 | 0.00 | 0.00 | 73 | 1013.0 |
| 20260503202420 | 60 | 249 | 8.0 | 15.0 | 0.00 | 0.00 | 0.00 | 72 | 1013.0 |
| 20260503201926 | 61 | 228 | 7.0 | 13.0 | 0.00 | 0.00 | 0.00 | 73 | 1013.0 |
| 20260503201434 | 60 | 239 | 5.0 | 16.0 | 0.00 | 0.00 | 0.00 | 73 | 1013.1 |
| 20260503200922 | 60 | 244 | 6.0 | 16.0 | 0.00 | 0.00 | 0.00 | 73 | 1013.2 |
| 20260503200428 | 60 | 246 | 7.0 | 13.0 | 0.00 | 0.00 | 0.00 | 73 | 1013.1 |
| 20260503195933 | 61 | 205 | 6.0 | 13.0 | 0.00 | 0.00 | 0.00 | 72 | 1013.2 |
| 20260503195419 | 60 | 285 | 4.0 | 13.0 | 0.00 | 0.00 | 0.00 | 73 | 1013.2 |
| 20260503194942 | 60 | 302 | 5.0 | 13.0 | 0.00 | 0.00 | 0.00 | 73 | 1013.2 |
| 20260503194455 | 60 | 251 | 5.0 | 14.0 | 0.00 | 0.00 | 0.00 | 74 | 1013.3 |
| 20260503193922 | 60 | 294 | 7.0 | 14.0 | 0.00 | 0.00 | 0.00 | 74 | 1013.4 |
| 20260503193429 | 60 | 224 | 7.0 | 17.0 | 0.00 | 0.00 | 0.00 | 73 | 1013.3 |
| 20260503192934 | 60 | 284 | 9.0 | 17.0 | 0.00 | 0.00 | 0.00 | 72 | 1013.3 |
| 20260503192421 | 60 | 264 | 7.0 | 15.0 | 0.00 | 0.00 | 0.00 | 72 | 1013.4 |
| 20260503191927 | 61 | 261 | 6.0 | 15.0 | 0.00 | 0.00 | 0.00 | 71 | 1013.3 |
| 20260503191431 | 61 | 226 | 6.0 | 15.0 | 0.00 | 0.00 | 0.00 | 71 | 1013.3 |
| 20260503190937 | 61 | 280 | 4.0 | 19.0 | 0.00 | 0.00 | 0.00 | 72 | 1013.3 |
| 20260503190451 | 61 | 235 | 8.0 | 15.0 | 0.00 | 0.00 | 0.00 | 72 | 1013.4 |
| 20260503185926 | 61 | 171 | 7.0 | 15.0 | 0.00 | 0.00 | 0.00 | 72 | 1013.4 |
| 20260503185433 | 61 | 194 | 7.0 | 17.0 | 0.00 | 0.00 | 0.00 | 72 | 1013.4 |
| 20260503184916 | 61 | 224 | 8.0 | 17.0 | 0.00 | 0.00 | 0.00 | 72 | 1013.5 |
| 20260503184421 | 61 | 251 | 7.0 | 14.0 | 0.00 | 0.00 | 0.00 | 72 | 1013.4 |
| 20260503183923 | 61 | 233 | 5.0 | 12.0 | 0.00 | 0.00 | 0.00 | 73 | 1013.4 |
| 20260503183430 | 60 | 202 | 6.0 | 11.0 | 0.00 | 0.00 | 0.00 | 74 | 1013.4 |
| 20260503182935 | 60 | 290 | 5.0 | 12.0 | 0.00 | 0.00 | 0.00 | 74 | 1013.4 |
| 20260503182419 | 60 | 242 | 5.0 | 12.0 | 0.00 | 0.00 | 0.00 | 74 | 1013.3 |
| 20260503181926 | 59 | 234 | 5.0 | 13.0 | 0.00 | 0.00 | 0.00 | 75 | 1013.4 |
| 20260503181430 | 59 | 270 | 6.0 | 13.0 | 0.00 | 0.00 | 0.00 | 75 | 1013.3 |
| 20260503180933 | 59 | 275 | 5.0 | 14.0 | 0.00 | 0.00 | 0.00 | 76 | 1013.3 |
| 20260503180437 | 58 | 330 | 8.0 | 14.0 | 0.00 | 0.00 | 0.00 | 76 | 1013.4 |
| 20260503175920 | 58 | 339 | 7.0 | 13.0 | 0.00 | 0.00 | 0.00 | 77 | 1013.2 |
| 20260503175456 | 58 | 270 | 9.0 | 15.0 | 0.00 | 0.00 | 0.00 | 76 | 1013.3 |
| 20260503174949 | 58 | 282 | 8.0 | 16.0 | 0.00 | 0.00 | 0.00 | 77 | 1013.2 |
| 20260503174434 | 58 | 290 | 10.0 | 16.0 | 0.00 | 0.00 | 0.00 | 77 | 1013.2 |
| 20260503173919 | 58 | 339 | 6.0 | 12.0 | 0.00 | 0.00 | 0.00 | 77 | 1013.2 |
| 20260503173424 | 58 | 277 | 5.0 | 10.0 | 0.00 | 0.00 | 0.00 | 77 | 1013.2 |
| 20260503172925 | 58 | 268 | 4.0 | 10.0 | 0.00 | 0.00 | 0.00 | 77 | 1013.3 |
| 20260503172431 | 58 | 256 | 5.0 | 10.0 | 0.00 | 0.00 | 0.00 | 77 | 1013.2 |
| 20260503171949 | 58 | 193 | 5.0 | 13.0 | 0.00 | 0.00 | 0.00 | 77 | 1013.2 |
| 20260503171435 | 58 | 189 | 7.0 | 13.0 | 0.00 | 0.00 | 0.00 | 77 | 1013.2 |
| 20260503170942 | 58 | 193 | 5.0 | 12.0 | 0.00 | 0.00 | 0.00 | 77 | 1013.2 |
| 20260503170427 | 58 | 297 | 5.0 | 12.0 | 0.00 | 0.00 | 0.00 | 78 | 1013.2 |
| 20260503150927 | 55 | 45 | 1.0 | 6.0 | 0.00 | 0.00 | 0.00 | 81 | 1012.4 |
| 20260503150432 | 55 | 217 | 3.0 | 6.0 | 0.00 | 0.00 | 0.00 | 81 | 1012.4 |